ONEWEB-0270 (48988 NORAD) Tracking and Keplerian Element Data

This shows tracking and keplerian element data for the satellite.

Feedback or suggestion? Click here.




ElementValue
Catalog48988
NameONEWEB-0270
Epoch Orbit1396
Epoch Day269.25001157
Epoch Year2021
RAAN211.851
Inclination87.9451
Eccentricity0.0010332
Argument of Perigee321.6146
Mean Anonmoly112.3652
Mean Motion13.51162783
Decay Rate1.4E-07
L11 48988U 21060X 21269.25001157 .00000014 00000-0 00000+0 0 9991
L22 48988 87.9451 211.8510 0010332 321.6146 112.3652 13.51162783 13969

Live tracking and technical data element details for ONEWEB-0270 (NORAD 48988). ONEWEB-0270 can be tracked NOW for your location showing map with azimuth and elevation plus other details from your city location.

Track the satellite on the map from your city or location and see movement details for azimuth, elevation, latitude, longitude, range, height, and movement on the map or in text.







IsCatalogInMostPopularTable: catalog: 48988, numindb: 17
Update: records affected: 1



GetName: 48988 ONEWEB-0270

Hit Count: updated at: Sun, 26 Sep 2021 16:02:04 GMT